This demonstration page uses our WeatherBlox Daily Observations layout. Learn more.

Left ArrowRight Arrow

Hourly Observations for September 24, 2015

Temp ( °F °C ) Dew Point ( °F °C ) Humidity (%) Winds ( mph kmh ) Pressure ( in mb ) Visibility ( mi km ) Precip ( " mm )
12:52 am 00:52 Cloudy 69 20.6 66 18.9 90 90 ESE 14 22 30.04 1017 10 16 0.00 0.03
1:52 am 01:52 Cloudy 69 20.6 65 18.3 87 87 SE 9 15 30.05 1018 10 16 0.00 0.00
2:52 am 02:52 Cloudy with Light Rain 68 20 66 18.9 93 93 SE 13 20 30.04 1017 8 13 0.02 0.51
3:52 am 03:52 Cloudy 69 20.6 65 18.3 87 87 SSE 12 19 30.03 1017 10 16 0.00 0.03
4:52 am 04:52 Cloudy 68 20 65 18.3 90 90 SE 13 20 30.03 1017 10 16 0.00 0.00
5:52 am 05:52 Cloudy with Light Rain 68 20 64 17.8 87 87 SE 15 24 30.02 1017 10 16 0.00 0.03
6:52 am 06:52 Cloudy with Light Rain 69 20.6 64 17.8 84 84 SSW 8 13 30.05 1018 4 6 0.00 0.03
7:08 am 07:08 Cloudy with Rain 68 20 64 18 88 88 S 8 13 30.06 1018 2 3 0.00 0.00
7:21 am 07:21 Cloudy with Light Rain 68 20 63 17.2 84 84 SSW 9 15 30.06 1018 5 8 0.09 2.29
7:52 am 07:52 Cloudy with Light Rain 67 19.4 64 17.8 91 91 S 6 9 30.07 1018 7 11 0.10 2.54
8:52 am 08:52 Mostly Cloudy with Light Rain 67 19.4 63 17.2 87 87 S 15 24 30.06 1018 10 16 0.02 0.51
9:52 am 09:52 Cloudy with Rain 66 18.9 63 17.2 90 90 SSE 12 19 30.07 1018 4 6 0.07 1.78
10:52 am 10:52 Cloudy 67 19.4 62 16.7 84 84 SSE 16 26 30.06 1018 10 16 0.01 0.25
11:52 am 11:52 Mostly Cloudy 69 20.6 62 16.7 78 78 SSE 22 35 30.06 1018 10 16 0.00 0.00
12:52 pm 12:52 Cloudy with Light Rain 70 21.1 63 17.2 79 79 SSE 15 24 30.05 1018 10 16 0.08 2.03
1:52 pm 13:52 Cloudy with Heavy Rain 69 20.6 65 18.3 87 87 S 9 15 30.05 1018 3 5 0.18 4.57
2:52 pm 14:52 Cloudy with Light Rain 70 21.1 66 18.9 87 87 ESE 7 11 30.04 1017 10 16 0.11 2.79
3:52 pm 15:52 Cloudy 72 22.2 66 18.9 82 82 SE 9 15 30.03 1017 10 16 0.00 0.03
4:52 pm 16:52 Mostly Cloudy 72 22.2 64 17.8 76 76 SE 14 22 30.02 1017 10 16 0.00 0.00
5:52 pm 17:52 Cloudy 72 22.2 64 17.8 76 76 SE 16 26 30.01 1016 10 16 0.00 0.00
6:52 pm 18:52 Cloudy with Light Rain 71 21.7 65 18.3 81 81 ESE 16 26 30.02 1017 6 10 0.02 0.51
7:52 pm 19:52 Cloudy with Rain 68 20 67 19.4 96 96 SW 5 7 30.06 1018 5 8 0.12 3.05
8:52 pm 20:52 Cloudy with Rain 68 20 67 19.4 96 96 SSE 8 13 30.08 1019 5 8 0.20 5.08
9:52 pm 21:52 Cloudy with Rain 67 19.4 65 18.3 93 93 SSE 18 30 30.09 1019 4 6 0.20 5.08
10:52 pm 22:52 Cloudy with Rain 67 19.4 65 18.3 93 93 SE 15 24 30.10 1019 6 10 0.21 5.33
11:52 pm 23:52 Cloudy with Rain 67 19.4 65 18.3 93 93 ESE 18 30 30.10 1019 6 10 0.11 2.79

Powered by AerisWeather